Theta_e
322 325 324 322 328 336 336 334 336 337 334 335 337 336 335 336 338 339 339 339 338 337 336 335 335 333 327 326 328 326 329 331 327 328 330 330 330 328 325 325 324 324 324 324 324 325 325 325 326 326 326 326 326 326 326 325 324 324 323 323 323 322 323 323 324 324 323 322 320 318 318 317 316 315
320 323 324 322 322 326 327 328 332 332 329 331 334 335 336 336 337 339 340 339 338 337 336 334 334 334 328 327 330 328 329 330 327 327 329 331 332 328 324 324 324 324 324 324 325 325 325 326 325 326 325 326 326 326 327 327 326 325 324 324 324 324 324 324 324 325 324 324 323 321 321 320 319 319
318 319 321 321 321 321 322 326 329 328 326 329 333 334 335 334 334 337 339 338 338 336 335 335 336 334 330 330 334 334 332 329 327 326 326 328 328 324 323 324 323 324 324 324 325 325 325 325 325 325 325 325 325 325 326 326 327 327 326 325 325 325 325 325 325 325 325 325 324 323 323 322 322 321
320 318 319 320 320 320 321 324 328 328 325 327 332 335 335 332 332 335 337 338 338 336 335 335 336 335 331 330 331 332 333 330 325 325 325 325 325 324 326 327 324 324 325 325 325 325 325 325 325 325 324 325 325 325 325 325 325 326 326 326 325 325 325 325 325 325 325 325 324 324 324 323 323 323
327 320 318 319 319 320 321 322 326 328 326 325 329 334 335 334 334 334 335 337 338 338 336 333 334 335 334 331 327 325 330 331 327 326 326 325 325 326 329 332 330 326 325 325 325 325 325 325 325 325 324 324 324 324 325 325 325 325 325 325 325 325 325 325 325 325 325 324 324 324 323 323 323 323
336 329 321 318 318 320 321 321 323 329 331 330 330 333 334 336 337 335 333 336 339 339 337 333 332 333 330 329 328 324 328 333 332 329 326 326 327 327 328 332 334 331 327 326 326 325 326 326 326 326 326 326 326 325 325 325 325 325 325 325 325 325 325 325 325 325 325 324 324 324 323 322 322 322
340 337 330 323 319 318 320 321 322 327 332 333 334 335 334 334 338 337 331 332 337 339 340 336 334 335 331 328 329 327 326 330 332 329 328 330 332 332 330 332 334 333 329 327 327 327 327 328 327 328 328 328 328 327 327 326 325 325 325 325 325 325 325 325 326 326 325 325 325 324 324 323 322 322
341 341 338 334 326 320 318 318 321 325 328 331 331 332 330 328 333 338 333 328 332 338 341 338 336 337 335 331 331 330 328 328 328 329 332 334 335 335 334 335 335 333 328 326 327 327 328 328 328 328 328 327 328 328 328 328 327 327 327 326 326 326 326 326 326 326 326 326 326 325 325 325 325 324
342 341 341 340 337 330 323 318 319 322 324 325 326 327 326 324 327 335 336 330 327 331 337 339 337 335 333 331 329 330 331 332 331 331 332 334 334 334 334 336 336 333 329 328 328 327 327 326 325 325 325 325 325 326 327 329 329 329 329 328 328 328 328 327 327 327 326 326 326 326 326 326 326 326
342 342 341 342 341 339 334 326 320 319 319 321 324 324 324 324 326 331 335 335 332 329 332 336 337 335 333 331 329 328 329 333 336 337 336 337 335 332 331 334 335 334 331 329 327 325 324 324 323 321 322 322 322 323 325 326 327 327 328 328 328 328 329 329 328 328 327 327 327 327 327 327 327 327
341 342 342 342 342 341 340 337 330 323 319 318 320 322 323 324 327 332 336 337 337 335 334 336 337 337 336 335 335 334 332 331 333 334 336 339 339 335 332 332 333 334 332 329 327 326 323 321 322 320 320 320 321 321 321 321 322 323 324 324 325 326 327 328 329 329 328 328 328 328 328 328 328 328
341 342 342 342 342 341 340 341 339 333 325 319 317 319 322 324 328 333 337 338 338 338 339 339 338 338 338 337 338 339 335 332 332 333 336 339 340 339 336 333 332 331 329 328 330 330 327 324 324 322 321 323 323 321 319 320 321 322 323 324 325 325 326 327 329 329 329 329 329 329 329 329 328 328
342 342 342 341 341 341 341 341 342 340 334 327 322 318 319 323 326 330 336 339 338 338 339 340 339 339 339 338 338 338 336 334 335 337 339 339 339 338 338 337 334 329 327 327 329 330 330 328 327 326 326 328 326 323 322 323 324 324 324 324 325 325 325 326 327 328 328 328 328 328 328 327 326 325
342 342 342 341 340 340 340 341 342 342 341 337 332 324 319 320 323 325 331 337 338 339 340 340 339 340 339 338 338 338 338 338 338 339 340 340 339 338 337 337 337 332 329 329 330 331 331 329 328 328 329 329 327 325 327 327 325 324 323 323 323 324 324 325 325 326 326 326 326 326 325 325 324 324
339 341 342 341 341 340 340 341 342 343 343 342 340 333 323 319 320 323 327 333 338 340 340 339 339 340 339 339 339 339 340 340 340 340 340 339 339 339 336 336 338 334 329 329 331 332 331 330 330 329 329 329 327 327 328 326 323 322 322 322 323 323 323 324 324 324 324 324 324 324 324 323 323 323
337 340 340 341 342 341 340 341 342 343 344 343 342 340 330 320 319 321 324 330 337 340 340 340 340 339 339 339 340 340 340 340 340 340 340 337 336 337 336 336 337 336 330 329 332 332 330 330 330 329 329 329 328 327 328 326 323 321 320 321 322 322 323 323 323 323 323 323 323 323 323 323 322 322
336 338 339 340 341 341 340 341 341 343 344 344 343 343 337 326 318 319 321 324 331 336 339 340 339 339 338 338 339 338 336 337 338 338 339 338 336 336 337 336 335 334 331 331 332 331 330 329 329 329 329 328 327 327 327 324 321 318 316 316 317 317 317 318 318 318 318 318 318 319 319 320 321 321
336 336 338 339 340 341 341 341 341 343 345 345 344 344 342 333 323 319 319 320 323 329 335 338 339 338 336 336 336 336 334 333 334 336 338 339 339 338 336 333 330 329 330 331 331 330 330 329 328 328 328 327 326 326 325 324 321 317 314 313 311 309 308 309 310 311 311 311 312 312 313 313 314 316
335 335 336 338 339 341 340 340 341 343 345 346 346 345 345 341 332 323 319 319 320 323 329 335 337 336 334 334 335 335 334 333 333 333 333 333 334 333 331 328 328 330 330 330 330 330 330 329 327 326 325 324 325 325 324 323 321 319 316 313 308 304 303 304 304 305 305 306 306 306 306 307 307 307
336 336 337 337 338 340 341 341 341 343 346 348 347 346 346 345 340 332 323 320 320 321 326 332 335 335 333 333 336 336 335 334 333 331 329 328 328 329 329 329 331 331 331 329 329 329 330 328 326 324 324 324 324 324 323 322 322 321 317 311 305 301 301 302 302 303 303 303 303 303 303 303 303 303
338 338 339 338 338 339 340 342 342 342 346 349 349 347 347 346 344 337 328 322 320 322 326 329 331 331 331 331 335 336 335 334 331 328 327 329 331 332 333 333 331 330 330 329 329 329 328 327 325 324 324 323 323 323 322 322 321 319 314 309 305 304 303 302 302 302 302 302 302 302 302 302 302 302
341 340 341 340 339 338 339 342 343 342 346 349 349 348 347 347 345 340 334 329 325 324 328 330 330 329 330 333 336 336 335 332 328 326 327 331 333 334 334 333 331 329 329 329 327 327 327 326 324 323 323 323 323 323 322 320 318 316 314 312 311 310 307 304 302 302 302 302 302 302 302 302 302 303
346 345 343 342 339 337 340 343 342 342 345 349 350 349 348 347 346 342 339 337 334 328 328 331 331 331 332 334 336 336 333 329 326 325 325 328 332 333 332 331 330 329 328 327 325 325 325 324 322 322 322 322 322 321 319 318 316 315 314 314 314 314 312 308 305 304 304 303 303 303 304 304 305 306
350 348 347 344 339 337 340 342 340 342 345 348 350 349 348 347 346 344 340 340 339 334 330 331 332 332 333 335 336 335 331 327 325 324 324 327 330 331 330 329 328 327 327 325 324 324 323 322 321 321 322 321 320 319 316 315 314 313 313 314 314 314 313 311 310 311 310 309 308 308 308 308 309 310
351 349 347 344 339 337 339 339 339 341 346 349 350 349 348 347 346 344 341 340 339 337 335 333 332 332 334 335 335 333 330 326 324 325 327 330 331 330 328 328 327 327 326 324 323 322 321 320 321 321 321 320 318 316 314 313 312 312 313 313 313 313 312 312 313 314 314 314 314 314 313 312 311 312
348 345 341 339 337 336 337 338 339 342 346 349 350 349 348 347 345 343 341 340 338 337 336 335 334 334 335 335 334 332 330 328 327 328 330 330 330 328 328 327 327 326 325 324 322 320 319 320 321 320 319 318 316 314 313 312 312 312 312 312 312 312 312 312 313 314 315 315 315 315 315 314 313 314
342 338 335 335 335 336 337 338 339 343 347 349 350 349 347 346 344 341 340 339 338 337 336 336 336 336 336 334 333 332 332 331 330 330 330 330 328 327 326 325 324 323 322 322 321 319 318 319 319 317 316 315 314 313 312 312 311 312 312 312 312 311 311 312 313 314 315 315 315 316 316 316 316 316
347 343 338 336 335 335 337 338 341 345 348 350 349 348 347 345 342 339 337 337 336 336 336 336 336 336 335 333 333 332 332 332 331 330 329 328 327 326 325 323 322 321 319 318 318 318 317 317 316 314 313 312 312 312 312 311 311 312 312 312 311 311 312 313 314 315 315 315 315 316 316 316 317 317
353 352 347 342 340 337 336 340 344 348 350 350 349 347 346 343 338 335 336 337 336 336 336 336 336 336 333 332 332 332 332 331 330 328 326 325 325 325 324 322 321 320 319 317 317 317 316 315 313 310 307 307 308 311 311 311 312 311 311 311 311 312 313 314 314 315 314 315 315 316 316 316 316 317
354 354 351 348 344 340 339 343 347 349 350 348 346 346 343 338 335 336 337 337 336 336 336 336 335 334 333 332 332 331 331 332 330 326 322 323 324 324 323 322 321 320 320 319 318 316 315 313 311 307 303 303 306 309 310 311 311 310 310 311 312 314 315 315 314 314 314 315 315 315 315 316 316 316
354 353 353 350 347 343 344 347 349 350 349 346 344 341 337 334 335 337 337 336 336 336 336 335 334 333 333 333 331 330 331 331 328 323 321 323 324 323 323 322 322 321 320 319 318 316 314 312 308 304 302 301 303 305 307 308 310 310 311 312 314 315 314 314 314 314 314 314 315 315 316 316 316 315
355 354 353 352 349 348 349 350 350 348 346 343 340 335 331 333 336 337 336 336 336 336 335 334 334 333 332 332 331 330 330 328 325 322 322 323 324 324 323 322 321 320 319 319 318 316 314 312 307 303 301 302 302 301 302 305 309 311 312 314 315 315 314 314 314 314 314 315 316 316 316 315 315 314
353 354 354 352 350 350 350 350 349 346 344 341 335 330 331 335 336 335 335 336 336 336 335 333 333 332 331 330 330 330 327 324 323 323 323 322 323 323 322 321 320 319 319 318 317 316 315 313 308 303 301 301 301 301 302 305 309 312 313 314 314 314 314 315 315 314 315 315 316 315 315 314 314 314
352 352 353 352 351 351 351 350 348 345 343 339 333 328 330 333 334 334 335 335 336 335 333 331 330 330 330 330 329 327 325 324 324 325 324 323 323 322 321 320 320 319 318 317 316 315 314 312 308 304 302 303 304 305 307 309 312 314 314 313 313 313 314 315 315 315 315 315 315 315 314 313 313 313
350 350 351 352 351 350 351 350 347 344 342 339 333 330 330 331 333 335 335 335 336 334 330 329 330 328 328 328 327 325 325 326 326 325 325 324 323 322 321 319 319 319 318 317 315 314 313 311 308 307 307 309 310 311 311 312 313 315 315 313 313 313 313 314 315 315 315 315 315 314 313 313 313 313
350 348 350 351 350 350 350 349 346 345 342 338 333 332 332 333 334 334 334 334 334 331 328 328 329 327 326 326 325 325 326 326 325 325 325 323 322 322 320 319 318 318 316 315 314 313 312 310 309 309 309 310 312 312 312 312 313 313 314 314 313 312 313 314 315 315 314 314 314 313 313 312 312 312
349 347 348 348 347 347 347 346 344 343 341 337 335 334 333 332 332 332 333 333 332 329 326 325 326 326 326 326 326 326 326 326 325 325 324 322 322 321 319 319 318 317 315 315 314 312 310 309 309 309 310 311 312 311 311 312 312 312 312 312 312 312 313 314 315 315 314 313 313 313 313 312 312 312
346 345 345 342 339 339 340 341 342 341 338 336 336 335 333 331 330 332 333 331 329 326 324 324 326 327 326 326 326 326 326 325 324 323 322 321 321 320 319 319 318 316 315 314 313 311 310 309 310 310 310 311 312 311 311 311 311 311 311 311 311 313 314 315 315 314 314 314 313 313 312 312 312 312
345 343 342 339 337 339 342 343 343 340 337 336 337 336 334 332 332 332 331 328 326 324 324 325 328 327 325 326 327 326 325 325 323 322 321 321 320 320 319 318 317 315 314 313 312 311 310 310 310 311 311 312 311 310 309 308 309 310 312 312 313 313 314 315 315 315 314 313 312 311 311 311 312 311
343 340 339 339 340 342 344 344 343 340 337 337 337 335 333 332 331 330 328 325 324 325 326 327 328 327 326 327 327 325 324 324 323 321 321 321 320 319 318 317 315 314 313 312 311 310 309 310 310 310 308 307 306 304 304 307 309 312 314 314 313 312 313 314 314 314 314 312 311 311 312 311 311 310
340 340 339 340 343 343 341 340 340 339 337 335 334 332 331 330 329 327 325 323 324 326 328 328 327 327 327 327 326 325 323 323 322 321 321 320 319 318 316 314 313 312 311 311 310 309 310 310 308 305 302 302 303 305 308 312 314 315 314 313 312 312 313 312 312 312 311 311 311 312 312 311 310 310
339 339 340 341 342 341 340 338 338 337 335 332 330 329 329 327 326 325 324 324 326 328 328 327 327 327 327 327 326 324 323 322 321 321 320 319 318 316 314 311 310 310 310 310 310 310 309 307 304 301 303 306 309 311 313 314 315 314 313 312 312 312 313 313 312 312 311 310 311 312 311 310 309 308
340 340 340 340 339 338 337 337 335 333 331 329 327 326 326 326 325 325 324 326 328 328 327 326 326 327 327 326 325 324 323 322 321 320 320 318 316 314 313 311 310 310 311 310 309 309 307 306 305 306 308 310 311 311 312 313 313 313 313 313 313 313 314 314 313 312 311 310 311 311 310 310 309 308
337 336 336 335 335 335 335 334 332 329 328 327 326 326 326 326 325 325 325 326 326 325 325 326 326 327 326 325 324 323 322 321 320 320 318 316 314 312 312 312 312 311 311 310 309 308 308 307 307 308 310 310 310 311 311 312 313 313 313 313 312 313 313 313 312 312 311 311 311 311 310 309 308 307
332 330 329 329 332 334 333 330 327 326 326 327 327 327 326 326 325 326 326 325 324 324 325 327 326 326 326 324 323 322 321 320 319 318 316 314 312 311 312 312 311 311 311 310 308 308 308 307 308 309 310 310 310 311 311 312 313 313 313 312 312 312 312 312 312 312 311 311 311 310 309 308 307 306
Wind_Speed
13 13 13 12 12 13 13 12 11 11 11 10 10 10 10 9 8 7 7 7 7 7 8 9 10 11 9 10 12 10 9 10 9 8 10 10 11 11 10 11 12 11 11 11 10 10 11 11 11 12 12 13 14 14 14 14 13 12 12 11 11 11 11 12 12 12 12 13 13 12 13 13 14 15
14 15 14 13 13 14 14 13 13 13 12 11 11 11 11 11 10 9 8 7 6 7 7 7 9 11 10 8 9 9 9 9 8 8 10 9 10 12 10 10 10 10 10 10 10 10 10 11 11 12 12 13 14 15 15 15 15 15 14 13 13 13 13 14 14 14 14 14 14 13 13 13 14 14
16 16 15 15 14 14 14 14 14 14 13 12 12 12 12 13 12 11 9 8 8 8 7 6 7 9 9 7 7 8 8 8 7 8 10 10 11 12 11 10 10 10 10 10 10 10 11 11 12 12 13 14 14 15 16 16 16 16 16 16 16 16 16 16 17 17 17 16 16 15 16 16 16 16
18 18 17 17 16 15 14 15 15 15 14 13 13 13 14 14 13 13 12 10 10 9 8 7 8 9 9 8 8 8 8 9 8 8 10 11 11 10 10 11 11 10 11 11 11 12 12 13 13 14 14 15 15 16 16 16 16 17 17 18 18 18 19 19 19 19 19 18 18 18 18 18 18 18
19 19 19 19 18 16 16 15 16 16 16 15 15 15 15 14 14 14 14 12 11 10 10 10 9 9 10 9 9 9 9 10 9 8 9 11 11 11 10 11 12 12 12 12 14 14 15 16 16 17 17 17 18 18 18 18 18 18 18 19 19 20 20 20 20 21 21 20 20 19 19 19 19 20
20 20 19 20 20 19 18 17 17 17 17 16 16 17 16 15 15 15 15 13 12 11 11 11 10 11 12 11 10 10 9 10 11 10 10 10 11 12 11 10 11 14 14 13 15 16 16 17 18 18 19 20 20 21 21 21 20 20 21 20 21 21 21 22 22 22 22 22 21 21 20 20 20 20
21 21 20 20 21 21 20 19 18 18 18 17 17 18 18 17 16 16 16 15 13 12 11 12 11 11 12 11 11 11 10 11 12 12 11 10 10 11 11 9 10 13 14 13 14 15 16 16 17 17 18 19 21 22 22 23 23 23 23 23 23 23 23 23 23 23 23 23 22 21 21 21 21 21
23 23 21 21 21 22 22 22 20 20 19 19 19 19 20 19 18 17 17 17 15 13 12 12 12 11 12 11 11 12 12 12 12 11 10 10 10 10 11 9 10 13 13 12 13 15 16 17 17 18 18 19 20 21 23 24 25 25 25 25 26 25 25 25 25 25 26 26 25 24 24 24 24 24
26 25 23 22 22 22 23 23 23 22 21 21 21 21 20 21 20 19 18 18 17 16 14 13 12 13 13 12 12 13 12 11 11 11 11 11 11 11 10 9 10 13 13 13 14 15 17 18 18 17 18 19 20 21 22 23 24 25 26 26 27 27 27 28 28 29 29 29 28 27 26 26 26 26
28 27 25 23 23 24 24 24 24 24 23 22 22 22 21 21 21 21 19 17 16 17 17 14 13 14 14 13 13 13 12 11 10 10 10 10 11 12 11 9 10 11 12 13 14 16 17 17 17 17 18 18 20 21 22 23 23 23 24 24 26 27 27 28 29 30 29 29 29 28 28 27 27 28
30 29 27 26 25 26 25 25 24 24 24 23 23 22 22 22 21 21 20 17 16 17 17 15 15 14 14 14 13 12 13 13 13 12 11 10 11 12 11 11 11 11 13 15 15 16 17 17 17 19 19 19 20 21 22 22 23 23 22 23 23 24 25 26 27 28 28 28 28 28 29 29 29 29
31 31 30 28 28 28 27 26 25 25 24 24 24 24 23 23 22 22 20 18 18 17 16 15 15 14 14 14 14 14 15 15 14 13 12 11 11 10 11 12 13 12 13 14 14 14 16 16 17 19 19 18 19 20 21 21 21 21 21 21 20 20 22 24 25 27 28 28 29 29 29 30 30 29
33 33 32 31 31 30 29 28 26 25 24 23 23 24 24 24 24 23 21 19 19 18 17 16 15 15 15 16 16 16 16 15 13 12 12 13 12 11 11 11 14 15 15 15 15 14 14 15 15 16 16 14 16 18 19 18 18 19 19 19 19 20 20 21 23 25 26 27 28 28 28 28 28 28
34 34 34 34 33 32 31 30 27 25 24 23 22 23 24 24 24 24 23 22 20 19 18 18 16 16 17 16 17 17 15 13 13 12 13 13 12 12 12 10 12 15 16 17 16 14 13 14 14 14 14 14 15 16 16 17 18 19 21 21 21 22 22 22 22 23 25 25 26 26 27 27 27 27
35 35 36 35 35 35 34 32 29 26 25 24 22 23 24 25 25 25 25 24 22 20 20 18 17 17 17 16 16 15 14 12 12 12 12 12 11 11 12 10 10 14 18 18 16 13 13 13 13 13 13 14 15 15 16 19 19 20 21 21 21 21 22 22 23 24 24 25 25 26 26 27 27 27
37 36 37 37 37 38 37 35 32 29 27 26 24 24 25 26 25 25 26 25 23 21 20 19 19 18 18 17 16 16 14 12 12 12 12 13 13 12 12 11 9 13 18 19 15 13 13 13 13 14 14 15 17 17 17 19 20 20 21 21 21 21 22 22 23 24 24 25 25 26 26 26 26 27
39 38 38 39 39 40 39 37 35 31 28 27 26 25 26 27 27 26 27 27 25 23 21 20 20 19 18 18 18 18 16 14 13 13 12 12 13 12 12 12 11 14 18 16 12 12 12 12 13 15 15 16 18 17 18 20 22 22 22 21 21 23 23 24 24 25 25 25 26 26 27 27 27 28
42 39 38 40 41 42 41 39 37 33 30 28 28 28 28 28 28 28 28 28 28 27 24 22 21 21 20 20 20 20 18 16 15 14 12 12 12 12 13 15 17 17 16 12 9 11 11 10 13 16 15 16 17 16 18 22 24 25 24 23 22 23 24 24 24 24 25 25 26 27 27 28 29 29
44 41 40 40 41 43 43 41 38 35 31 28 29 30 29 29 29 29 29 29 29 30 29 26 22 22 21 19 19 20 19 18 17 16 14 14 14 15 16 17 17 14 12 12 12 12 11 11 14 16 16 16 16 16 17 21 22 24 25 25 24 22 21 21 21 21 21 22 23 24 25 26 27 28
45 43 41 42 43 44 44 43 40 36 30 28 29 30 30 29 29 29 30 30 29 29 29 27 24 23 23 22 19 18 18 17 16 15 15 15 15 16 16 15 12 9 10 13 14 12 11 11 14 17 16 16 17 17 16 17 20 23 25 26 24 21 18 17 17 18 19 19 20 21 21 22 23 25
46 45 41 41 43 44 44 44 42 36 30 28 28 29 30 30 29 29 29 29 29 28 28 28 26 25 26 25 21 18 17 16 15 14 14 13 13 13 13 11 11 9 8 10 11 11 12 13 14 16 16 16 17 17 14 13 17 22 25 25 24 22 20 19 19 18 18 19 19 20 20 21 21 22
46 45 42 39 41 44 44 44 42 36 30 29 27 25 27 29 29 28 27 26 27 28 28 27 26 25 26 25 21 18 17 16 15 14 14 13 12 12 11 10 10 10 9 11 13 14 14 14 14 14 15 16 15 14 13 14 17 20 21 21 21 21 22 22 21 19 18 17 17 18 19 20 20 21
39 39 40 38 40 43 43 43 43 37 31 31 29 24 23 26 27 26 25 23 23 27 29 28 26 26 26 24 21 19 18 16 15 15 15 15 13 12 11 10 11 10 11 14 16 15 13 12 12 13 15 16 14 13 14 16 17 17 17 17 18 19 21 23 22 20 19 17 16 15 15 16 17 19
30 31 34 36 40 43 43 44 45 39 33 31 31 27 23 23 23 22 23 23 22 22 27 29 27 25 24 23 21 20 18 17 16 17 17 16 13 11 10 11 11 10 10 13 16 15 13 12 13 13 14 16 16 15 15 16 17 17 17 17 17 17 19 20 19 18 19 19 18 17 16 15 15 16
29 31 34 37 41 43 44 47 47 41 34 31 32 31 26 23 22 20 22 26 23 19 22 26 26 24 23 22 19 19 18 18 18 18 16 13 12 13 11 11 11 10 10 14 18 19 17 14 13 13 13 15 17 17 17 18 17 16 16 16 16 17 18 18 17 16 17 18 18 19 19 20 19 18
39 41 44 46 46 44 44 47 47 40 34 32 32 32 29 26 25 23 22 25 23 19 19 23 23 23 22 19 17 17 18 18 16 14 13 13 13 12 11 11 12 10 9 13 19 20 18 14 13 13 14 15 16 17 18 18 17 15 16 16 17 17 17 16 16 16 16 17 17 18 20 22 21 20
49 50 52 51 50 46 44 45 45 39 35 34 33 31 30 30 29 26 23 22 21 21 22 21 20 20 19 17 17 17 17 16 14 13 13 13 12 12 13 14 15 12 10 13 16 17 16 14 13 14 14 14 16 17 17 17 16 16 17 17 17 16 15 15 16 16 17 17 18 18 19 20 20 21
48 50 51 51 50 47 44 43 41 37 34 35 33 32 33 34 31 27 24 23 21 22 24 22 19 19 19 18 17 17 16 15 14 13 14 13 12 12 13 13 12 12 13 14 15 15 15 14 14 14 14 14 15 16 17 18 18 18 18 18 17 16 15 15 16 16 17 17 18 18 19 19 20 21
44 44 46 48 48 45 42 40 38 34 34 34 33 33 35 35 31 26 24 23 24 24 23 22 20 20 20 19 17 17 16 14 13 13 13 13 13 12 12 13 12 12 13 13 13 14 15 15 15 15 15 15 15 16 17 18 19 18 18 18 18 17 15 15 15 16 17 18 18 19 20 21 21 21
45 43 44 45 46 43 39 37 35 33 33 33 32 34 36 34 29 25 24 25 26 25 22 21 21 20 18 17 18 16 14 12 11 13 14 14 13 12 11 11 12 11 11 12 12 13 14 15 15 16 16 15 15 16 16 18 19 20 18 18 18 17 15 15 15 16 17 18 19 20 21 21 21 21
50 49 47 45 43 39 34 32 32 32 33 33 34 36 37 32 26 25 26 27 27 25 23 22 22 21 18 16 17 16 12 11 13 15 16 14 12 11 11 10 10 10 11 12 12 14 15 15 15 16 16 16 16 17 17 18 19 20 18 17 17 17 16 16 16 16 17 19 21 22 22 21 22 23
53 52 49 45 41 36 32 33 34 34 35 36 37 38 38 33 28 27 28 28 26 25 24 23 22 21 20 17 15 12 12 13 16 18 17 15 12 11 11 11 11 10 10 11 12 14 16 17 16 15 15 16 18 18 18 18 18 17 17 16 16 16 17 17 16 17 18 21 23 23 22 22 23 24
55 53 52 49 45 40 38 39 41 41 41 40 40 40 38 34 30 29 30 29 26 26 27 26 23 23 21 17 13 13 15 17 18 17 16 16 14 13 12 11 11 11 11 11 11 12 13 14 15 16 16 17 18 16 14 15 16 15 15 15 16 17 17 16 16 18 20 22 23 24 25 25 25 26
58 57 56 56 53 48 46 46 48 48 47 46 45 43 41 38 34 32 31 28 27 28 29 27 24 23 19 16 16 18 19 19 17 15 14 14 14 13 12 11 11 12 12 12 11 11 11 13 15 16 16 17 18 16 14 14 14 14 14 14 16 17 17 17 17 18 20 22 23 25 27 28 27 26
63 62 59 59 57 53 52 54 56 54 52 49 48 45 43 41 38 34 31 29 27 28 29 26 23 21 19 19 21 21 19 17 15 15 14 14 14 14 13 11 12 12 11 12 11 10 11 12 12 13 14 15 16 17 16 15 13 12 13 15 16 17 18 18 18 18 20 21 23 25 28 29 28 27
65 63 62 62 60 58 58 59 60 59 54 51 50 48 45 42 37 33 32 31 28 28 28 26 23 21 20 21 22 21 19 17 16 15 15 14 14 15 13 12 13 13 12 12 12 11 11 11 9 10 12 12 13 14 14 13 13 13 14 16 18 18 19 20 19 19 20 21 23 24 26 28 29 30
67 63 61 60 58 61 66 66 62 58 55 52 51 48 45 42 38 34 34 34 31 29 27 25 23 22 22 22 21 20 19 17 16 15 15 15 16 15 13 12 13 14 12 12 11 11 11 10 9 9 10 11 13 13 12 11 14 16 17 18 19 19 19 19 19 20 21 22 22 23 25 27 30 31
67 63 61 52 41 42 55 60 56 54 54 51 48 43 40 39 38 36 36 36 33 30 27 25 24 23 23 22 21 19 17 16 16 16 17 17 17 15 13 12 13 13 12 12 11 11 11 10 9 9 10 11 12 13 13 13 15 16 18 19 20 20 19 19 19 21 21 22 23 24 25 27 29 29
67 61 57 47 35 36 47 52 50 49 49 47 43 39 37 38 37 37 36 34 31 29 27 25 25 24 23 23 21 18 17 17 17 17 17 17 17 15 13 13 13 13 12 12 11 11 11 9 9 9 9 11 12 13 15 17 18 18 17 18 19 20 20 20 20 22 23 23 24 25 26 27 27 28
65 57 48 44 45 49 52 51 49 47 46 42 38 35 35 37 38 37 35 31 30 29 28 26 25 24 23 22 20 17 17 18 18 18 18 17 16 14 13 13 13 13 13 12 12 11 9 9 9 10 11 12 14 15 16 17 19 18 16 16 19 21 22 21 21 23 24 25 26 27 26 26 27 28
60 54 49 50 53 53 50 48 46 44 40 37 34 34 36 38 38 36 33 30 30 30 27 26 25 24 23 22 20 17 18 19 19 19 18 17 15 14 15 15 14 14 13 13 12 10 9 10 12 12 13 13 13 13 14 15 16 16 15 16 19 21 22 22 22 24 25 26 26 26 26 26 29 30
56 53 53 54 51 46 42 40 38 36 34 33 32 34 36 36 35 34 32 30 31 30 28 27 26 23 21 20 19 19 19 20 20 19 18 16 14 15 16 17 16 15 14 13 11 9 9 11 12 11 11 10 10 11 14 15 16 16 17 18 18 18 20 22 23 24 26 26 25 24 25 27 29 31
51 51 48 43 39 38 35 32 31 31 32 33 33 35 36 35 34 33 33 33 32 30 27 26 24 21 20 20 20 20 20 20 20 18 17 16 15 14 15 15 15 15 14 12 10 9 9 9 9 8 8 9 10 12 14 16 16 16 17 18 18 18 19 19 21 23 26 25 24 24 25 27 29 31
43 41 37 33 32 34 34 32 31 33 34 34 34 35 35 35 34 32 31 31 30 28 26 24 21 19 20 21 21 21 21 20 19 17 16 16 15 15 14 14 14 14 14 12 10 8 8 7 7 7 8 10 11 12 14 15 16 16 17 18 19 18 18 18 19 21 22 22 22 23 25 27 30 33
32 30 29 29 29 31 33 34 34 34 34 33 33 33 33 33 32 30 29 29 28 26 25 22 20 19 21 22 22 21 21 19 17 16 16 15 15 15 15 15 14 14 13 11 10 8 7 6 7 7 8 10 11 12 13 14 15 16 17 17 18 17 18 18 19 19 20 20 20 22 26 29 30 31
Wind_Direction
222 219 223 222 215 215 219 216 214 217 216 212 213 213 212 219 227 230 230 232 237 228 223 240 255 258 257 253 253 251 245 251 256 253 256 261 267 272 267 263 269 272 275 276 276 276 277 277 277 277 279 281 283 285 285 287 288 289 289 287 283 280 278 279 282 285 289 291 291 287 281 277 275 275
228 226 227 228 224 222 225 223 221 223 221 214 214 213 211 215 219 225 236 237 233 230 231 242 257 265 264 253 258 260 251 255 259 255 261 264 265 273 276 271 270 271 272 274 275 275 274 275 275 275 277 279 281 283 283 282 282 282 282 280 277 273 270 271 273 276 278 279 281 281 280 279 277 277
233 231 230 232 230 228 228 225 225 228 225 218 216 215 215 219 218 218 226 233 232 233 235 235 242 259 265 249 244 258 264 269 269 266 272 271 269 276 280 276 273 273 274 274 275 276 276 276 278 279 280 280 280 279 279 279 278 277 277 277 276 274 272 271 271 273 273 274 274 274 275 275 276 278
237 236 234 236 234 231 229 225 224 229 230 222 217 217 219 221 220 217 218 225 233 235 231 231 237 249 257 249 240 244 256 266 266 266 273 274 276 279 278 276 274 271 273 277 278 278 279 280 282 283 284 284 283 281 279 278 278 277 276 275 275 274 273 273 274 275 276 275 275 274 274 275 275 276
239 239 237 239 238 235 231 229 226 227 231 228 221 219 221 221 222 221 220 222 230 235 234 235 235 237 241 244 247 247 249 259 265 265 268 272 274 275 272 274 279 278 276 278 280 281 283 285 288 290 291 289 287 285 283 281 280 279 278 277 276 275 275 275 275 276 277 277 277 277 278 277 277 277
240 242 241 241 242 239 236 233 230 226 227 229 225 223 223 221 222 226 226 223 225 231 238 241 237 236 239 239 244 251 247 248 256 262 269 272 273 273 270 267 275 281 282 281 283 286 288 291 294 295 294 293 290 288 286 284 281 280 279 277 276 276 275 276 276 277 278 278 278 279 280 281 282 282
242 243 243 243 244 243 242 239 234 228 225 225 226 226 228 226 222 229 233 229 226 228 234 241 237 235 242 241 239 249 252 248 255 266 272 270 266 267 269 267 266 275 284 288 289 292 294 295 296 295 293 292 290 288 286 284 282 280 279 278 277 276 276 276 277 277 277 278 277 277 279 282 283 284
244 245 245 244 244 245 245 244 240 233 228 228 228 229 234 235 228 228 235 236 231 227 228 237 234 227 234 240 239 245 252 254 258 263 262 261 260 262 268 273 272 278 290 297 295 296 297 296 295 295 294 291 288 287 285 283 282 281 280 278 276 276 277 276 276 276 277 276 276 277 278 280 282 283
245 245 245 245 245 245 246 246 243 240 235 233 234 233 236 240 235 229 233 238 237 232 228 233 237 233 235 241 243 245 247 249 255 260 260 260 261 263 267 270 274 284 295 299 298 299 298 297 297 296 293 291 290 288 286 284 283 282 281 279 277 277 278 276 274 275 275 276 276 277 278 280 281 282
245 245 245 244 244 245 247 246 244 243 242 239 239 239 238 240 238 232 231 233 235 236 233 231 235 238 239 242 246 250 248 245 247 254 258 261 265 268 270 268 272 282 291 296 299 300 298 296 297 298 295 292 291 290 288 287 286 283 282 280 278 278 278 277 275 274 274 275 275 276 278 279 279 280
245 246 246 244 244 245 246 247 245 244 244 243 242 242 242 241 239 234 230 229 228 232 233 231 232 234 235 238 240 245 247 245 248 252 253 257 264 269 273 276 277 281 289 296 300 301 301 300 298 299 299 298 294 291 290 290 289 287 285 282 280 279 278 278 276 274 273 273 273 274 276 277 278 279
244 247 248 247 246 246 247 247 246 244 245 245 243 242 243 241 238 233 229 228 227 228 229 229 231 230 230 231 229 234 242 243 248 254 255 253 255 261 271 278 282 286 292 297 297 296 299 301 297 296 300 299 296 296 298 296 292 289 288 286 284 282 279 277 275 274 273 273 274 275 275 276 277 276
243 246 248 249 248 248 248 247 246 245 246 246 244 243 243 240 239 235 230 226 227 228 226 226 228 227 227 227 227 233 239 240 242 245 249 254 258 261 265 271 281 292 302 303 299 293 293 296 295 296 300 299 299 305 307 302 296 294 291 289 287 285 281 277 274 273 273 274 274 275 275 275 274 273
242 244 246 248 250 250 250 249 247 244 245 246 243 243 243 241 239 237 233 228 227 226 226 226 226 226 227 226 228 233 235 235 240 240 244 254 260 262 266 269 276 290 304 306 299 295 294 296 298 299 298 296 300 306 303 296 294 295 293 291 288 285 282 279 277 275 274 274 274 273 273 272 271 270
242 243 245 246 248 250 250 249 248 243 242 242 240 239 241 239 238 237 235 232 228 227 227 227 227 228 230 227 226 230 228 226 234 239 242 250 251 252 263 269 270 284 298 300 294 292 294 294 295 298 297 296 300 301 293 290 295 297 296 294 290 286 284 281 280 278 277 275 274 273 272 272 271 270
242 242 243 245 247 248 248 248 247 243 239 238 237 236 238 238 235 234 234 233 230 229 229 229 229 230 233 231 226 227 229 227 231 237 243 249 251 250 259 266 267 280 291 293 290 291 297 297 296 298 296 294 295 294 289 290 298 302 301 298 295 291 288 285 283 281 279 278 277 276 274 273 273 273
243 240 241 243 245 247 248 247 247 244 239 236 236 234 235 235 233 232 232 232 230 230 231 232 233 233 235 236 233 234 237 238 240 245 245 247 254 255 258 263 266 273 281 285 286 289 295 298 297 295 294 295 298 299 296 297 303 308 307 303 299 296 292 289 286 283 281 280 279 277 276 274 274 273
244 241 239 240 244 246 247 246 246 245 241 236 234 233 232 233 233 232 232 232 230 229 230 233 236 236 237 240 240 242 247 248 250 253 245 239 247 253 258 269 276 279 281 283 283 287 292 296 296 295 297 300 302 301 297 298 303 306 307 307 307 303 298 293 289 286 283 281 279 277 276 275 274 273
245 243 239 238 241 244 246 246 245 244 242 237 232 232 232 233 234 235 234 234 232 230 230 232 235 238 240 242 243 246 249 250 252 255 251 247 252 260 268 278 285 287 283 279 279 282 285 291 296 298 299 297 295 292 292 294 297 300 303 309 313 310 305 300 296 292 289 285 282 280 278 277 276 274
244 243 240 237 238 241 245 246 245 242 242 239 234 231 232 233 234 237 238 236 233 231 231 231 233 236 239 240 242 245 248 250 251 255 257 258 262 268 274 280 282 277 271 275 281 284 287 295 298 296 294 292 289 289 293 295 294 295 301 310 315 315 312 309 306 302 298 293 289 285 281 278 276 275
244 243 239 235 235 238 242 245 245 241 238 237 233 229 230 233 233 236 238 236 232 230 231 232 231 232 237 240 243 248 250 250 251 253 257 259 260 262 267 272 274 272 264 268 275 279 285 292 295 293 291 290 289 292 294 292 290 294 304 314 319 320 321 319 314 310 305 299 295 292 288 285 282 279
243 242 239 234 232 234 239 244 246 242 235 232 229 224 225 230 233 234 232 231 229 227 226 229 231 231 234 239 243 247 247 247 250 254 254 252 246 248 257 264 271 274 268 265 270 277 283 289 292 293 294 293 291 292 291 289 291 299 308 314 315 315 318 320 319 315 310 306 302 299 296 293 290 287
238 238 238 235 231 231 236 241 243 242 235 229 226 221 219 225 230 229 223 219 223 224 222 223 226 227 230 236 241 246 247 246 249 252 251 248 244 246 256 262 266 274 279 276 276 279 283 287 291 293 295 296 294 291 292 295 299 304 307 308 308 308 312 317 320 321 320 319 316 310 305 301 297 293
233 232 234 236 233 230 231 236 240 240 234 228 226 223 217 219 223 222 218 216 219 222 221 220 222 225 229 234 239 243 245 246 247 249 250 250 249 247 250 255 259 271 280 276 274 276 277 282 288 289 290 293 294 295 298 299 303 307 308 308 308 306 308 312 316 318 320 321 323 322 319 315 310 303
231 230 232 235 234 229 228 233 237 237 231 226 226 225 221 221 220 215 214 217 217 215 215 217 220 223 227 230 233 236 243 246 247 248 247 245 243 242 246 256 261 267 272 267 267 272 277 281 285 286 286 289 292 297 300 302 307 310 309 307 306 306 308 310 310 309 310 313 316 316 313 314 317 314
234 233 233 235 235 230 227 230 234 234 229 224 224 224 222 221 217 207 205 213 214 207 206 211 215 218 219 221 221 225 237 244 242 241 241 238 236 236 234 243 250 250 259 268 269 273 277 279 279 284 287 289 293 298 301 305 309 309 306 306 306 306 308 308 306 306 305 306 307 305 305 311 318 318
239 238 236 236 236 232 227 229 233 232 226 222 220 219 219 218 213 203 199 205 205 199 200 203 205 207 209 212 216 218 226 234 232 227 227 228 232 234 232 240 249 245 241 258 270 276 279 279 279 284 288 290 294 299 302 304 306 307 306 307 306 305 306 305 303 304 305 305 305 305 307 311 314 313
240 240 237 235 235 233 228 229 232 230 224 220 217 215 217 216 209 199 196 201 200 195 195 196 197 202 204 207 214 219 219 223 225 222 219 218 224 234 238 245 253 251 248 260 271 276 277 279 282 286 286 287 290 295 298 301 303 305 305 305 305 305 305 302 302 304 305 306 307 309 310 311 309 308
235 237 237 235 234 233 228 228 228 223 218 216 212 212 214 212 204 195 193 198 199 194 192 193 195 201 207 210 215 219 219 218 218 220 221 221 221 228 238 247 251 255 262 271 274 273 276 282 286 286 285 286 289 291 294 298 300 300 301 302 304 305 303 303 304 304 305 307 309 310 311 310 308 306
232 235 237 235 233 232 228 225 222 215 210 208 207 208 210 207 199 193 192 196 199 195 192 194 195 198 205 212 214 215 212 207 212 224 228 226 222 223 232 246 257 262 265 266 266 269 277 284 288 289 291 294 293 291 292 294 295 297 299 299 300 303 304 305 305 304 306 308 309 309 309 308 307 305
232 232 233 231 230 228 223 219 215 209 203 201 201 203 204 200 195 193 194 198 200 196 192 194 197 197 198 203 208 212 208 203 216 230 229 221 219 223 226 235 250 259 258 256 256 265 275 282 285 287 291 296 298 298 296 293 291 293 296 297 298 300 303 305 305 305 307 307 305 307 308 307 306 304
230 229 227 224 222 220 213 206 202 198 195 196 197 198 197 194 192 193 196 199 201 198 194 194 196 196 194 196 201 205 205 210 222 229 226 216 212 216 221 231 246 255 257 255 254 264 279 289 292 292 294 299 302 304 302 295 289 289 292 295 297 298 300 304 305 305 306 306 306 308 308 306 305 304
229 226 222 218 214 210 204 198 193 191 190 192 193 194 193 191 191 195 199 200 201 200 198 195 195 196 195 194 195 198 207 215 219 220 220 216 213 214 220 232 246 253 254 254 253 259 271 281 287 293 298 302 303 304 303 295 288 287 289 293 298 300 300 301 303 304 306 306 308 309 309 307 305 305
227 226 221 217 213 207 200 194 190 189 189 189 189 189 189 190 193 198 201 200 199 198 197 196 197 198 195 192 196 203 208 211 211 212 216 217 216 220 226 237 248 251 251 253 255 257 261 269 281 293 304 310 311 314 315 303 287 281 286 293 299 301 301 301 302 304 305 306 307 308 308 307 306 305
223 223 220 216 213 206 198 194 191 188 187 188 186 185 187 190 193 196 198 197 196 197 196 195 197 197 193 194 203 207 203 199 203 216 223 222 223 227 231 237 246 249 248 250 253 255 260 269 282 294 302 306 304 305 309 307 291 278 285 295 300 301 302 301 301 302 304 307 308 308 307 306 306 305
218 217 217 215 211 206 198 192 188 186 185 185 183 182 185 187 190 194 196 194 194 198 198 195 196 198 197 200 206 205 197 193 202 217 226 226 227 230 233 237 243 245 246 248 249 249 253 260 271 283 291 294 292 294 302 304 296 288 291 296 300 302 302 301 301 303 306 307 307 306 305 304 303 304
213 211 211 209 208 203 194 185 182 182 182 181 181 182 185 188 192 196 195 193 195 199 200 198 201 203 202 201 201 198 194 197 206 218 228 230 228 228 232 236 241 243 243 243 242 242 246 252 260 270 278 283 287 291 296 298 299 300 300 299 301 303 303 302 301 303 305 305 305 305 304 303 302 304
206 202 201 202 203 194 179 172 173 177 178 180 182 183 185 191 196 196 195 196 199 200 199 199 204 207 203 198 195 192 194 205 214 221 228 229 226 225 229 235 240 240 237 238 240 239 241 247 253 260 267 273 280 289 294 293 295 297 297 299 304 306 304 301 301 301 303 305 306 306 305 304 303 304
199 195 195 195 193 180 169 169 175 179 180 182 184 183 186 191 193 192 194 198 200 200 198 198 202 205 201 194 192 193 200 210 218 222 224 224 221 222 228 234 237 235 233 235 236 234 237 244 248 251 257 263 270 280 286 287 289 292 298 306 312 310 303 298 298 299 302 306 308 309 309 307 306 308
190 189 189 185 181 176 173 175 180 183 184 185 183 183 186 188 189 192 198 201 200 201 202 199 198 200 197 192 191 198 208 216 221 222 222 221 220 222 226 230 232 234 233 232 231 232 234 237 241 247 257 266 274 282 285 287 292 299 305 307 307 305 302 300 298 298 301 307 311 312 312 312 312 313
178 180 178 175 173 173 172 173 177 181 184 182 180 182 186 188 191 197 200 200 201 203 202 198 196 197 196 193 194 203 214 221 222 219 218 218 219 221 224 226 229 233 232 229 228 229 227 232 245 263 278 285 289 292 288 286 291 296 299 300 301 303 303 303 303 303 304 308 311 311 311 314 316 316
168 169 168 167 167 169 170 172 176 180 182 180 180 182 185 190 196 200 198 198 202 204 200 197 197 197 195 196 201 208 215 220 219 214 213 215 217 219 225 231 233 232 229 226 225 223 229 246 265 284 293 289 283 280 278 279 286 293 298 302 305 305 302 303 306 308 309 311 312 310 310 315 317 317
161 162 160 159 160 163 167 174 181 183 183 183 183 184 186 192 198 199 198 199 202 202 198 197 199 199 198 202 208 211 213 216 214 210 210 214 215 216 223 231 231 227 224 225 226 228 239 259 277 286 280 271 269 272 275 280 287 293 298 303 305 305 304 305 306 307 310 314 315 311 310 313 314 315
148 149 149 151 156 163 170 179 185 185 184 185 186 187 189 193 196 197 197 199 201 200 196 196 198 200 201 205 210 211 211 211 210 209 210 214 214 213 217 222 224 225 226 226 227 231 241 254 265 266 264 264 268 272 275 281 287 292 298 303 305 306 308 308 306 307 311 315 315 312 311 312 314 317
138 142 146 151 160 169 174 179 182 183 184 185 186 187 190 193 195 195 195 196 197 195 192 193 199 202 203 206 209 208 206 206 207 207 209 212 211 212 216 220 224 228 229 225 222 225 236 249 258 261 262 266 271 273 276 281 286 292 298 303 306 308 311 311 310 312 314 316 316 314 312 315 321 324